Regional Weather Roundup
Issued by NWS

Home | Current Version | Previous Version | Graphics & Text | Print | Product List | Glossary On
Versions: 1 2 3 4 5 6 7 8 9 10 11 12 13 14 15 16 17 18 19 20 21 22 23 24 25 26 27 28 29 30 31 32 33 34 35 36 37 38 39 40 41 42 43 44 45 46 47 48 49 50
000
ASUS45 KBOU 200107
RWRCO

WEATHER ROUNDUP FOR COLORADO
NATIONAL WEATHER SERVICE DENVER/BOULDER CO
600 PM MST FRI DEC 19 2014

NOTE: "FAIR" INDICATES FEW OR NO CLOUDS BELOW 12000 FEET WITH NO
SIGNIFICANT WEATHER AND/OR OBSTRUCTIONS TO VISIBILITY.

COZ001>005-013-030-031-200200-
...NORTHWEST COLORADO...

CITY           SKY/WX    TMP DP  RH WIND       PRES   REMARKS
CRAIG          MOCLDY    18  13  80 NE3       30.19S
HAYDEN         PTCLDY    19  14  79 E3        30.18S
MEEKER         PTCLDY    17  12  80 CALM      30.19S
MOUNT WERNER   NOT AVBL
STEAMBOAT SPGS CLOUDY    21  18  86 CALM      30.18S
WALDEN         CLOUDY    16  10  79 SE6       30.12R WCI   7
$$

COZ006>008-011-200200-
...WEST CENTRAL VALLEYS...

CITY           SKY/WX    TMP DP  RH WIND       PRES   REMARKS
GRAND JUNCTION CLOUDY    34  29  82 NW3       30.22R
MONTROSE       MOCLDY    34  24  67 NW5       30.21R WCI  30
EAGLE          CLEAR     27  21  80 E9        30.20R WCI  17
RIFLE          MOCLDY    32  25  75 S5        30.22R WCI  27
DELTA          MOCLDY    37  28  69 N6        30.21S
NUCLA          MOCLDY    34  27  75 CALM      30.23S
$$

COZ017>023-064>068-200200-
...SOUTHWEST COLORADO...

CITY           SKY/WX    TMP DP  RH WIND       PRES   REMARKS
DURANGO        MOCLDY    31  23  72 W3        30.17R
CORTEZ         CLEAR     34  28  79 CALM      30.19R
PAGOSA SPRINGS MOCLDY    25  19  78 CALM      30.17S
TELLURIDE      MOCLDY    24  15  69 W5        30.18R WCI  18
WOLF CREEK PAS PTCLDY    16   3  57 MISG      30.14S
$$

COZ009-010-012-014-032>034-037-058>063-200200-
...CENTRAL COLORADO...

CITY           SKY/WX    TMP DP  RH WIND       PRES   REMARKS
ASPEN          MOCLDY    22  14  71 VRB3      30.17R
BUENA VISTA    PTCLDY    29  10  43 NW8G22    30.09S WCI  21
COPPER MTN     MOCLDY    14   9  79 W8        30.12S WCI   3
BERTHOUD PASS  CLOUDY     5   0  78 MISG      30.07S
COTTONWOOD PAS PTCLDY    27   9  46 W9G18     30.09S WCI  17
GUNNISON       PTCLDY    21  10  63 NW6       30.20R WCI  14
KREMMLING      MOCLDY    18  12  79 CALM      30.17S
LEADVILLE      MOCLDY    13   8  81 N7        30.12R WCI   3
MONARCH PASS   CLOUDY    12   9  85 MISG      30.20R
SALIDA         PTCLDY    32  15  50 W13G18    30.17R WCI  22
SUNLIGHT       MOCLDY   N/A N/A N/A CALM      30.16R
WILKERSON PASS MOCLDY    19   5  53 W14       30.09R WCI   6
$$

COZ069>075-200200-
...SAN LUIS VALLEY/SANGRE DE CRISTO MOUNTAINS...

CITY           SKY/WX    TMP DP  RH WIND       PRES   REMARKS
ALAMOSA        PTCLDY    22  13  68 SE5       30.14R WCI  16
LA VETA PASS   PTCLDY    19  10  68 MISG      30.07S
SAGUACHE       PTCLDY    28  12  50 NW10      30.15R WCI  19
$$

COZ035-036-038>040-200200-
...NORTHERN COLORADO FRONT RANGE...

CITY           SKY/WX    TMP DP  RH WIND       PRES   REMARKS
DENVER INTL AP MOCLDY    30  18  60 S13       30.00S WCI  20
DMNS CITY PARK   N/A     38  11  32 S1        30.01R
AURORA         PTCLDY    32  16  52 S10       30.02R WCI  23
FRONT RANGE AP NOT AVBL
ERIE MUNI ARPT   N/A     39  11  31 W8        30.00S
BOULDER MUN AP PTCLDY    41  14  33 SW6       29.99S
CENTENNIAL     PTCLDY    35  13  40 S3        30.01S
BROOMFIELD     PTCLDY    37  12  35 W9        30.01
FORT COLLINS   PTCLDY    34  10  37 CALM      30.02R
LONGMONT       PTCLDY    34  16  48 W3        30.02R
$$

COZ041-046-047-076>085-087-088-200200-
...PIKES PEAK/PALMER DIVIDE AND SOUTHERN FOOTHILLS...

CITY           SKY/WX    TMP DP  RH WIND       PRES   REMARKS
COLO. SPRINGS  MOCLDY    35  14  42 S3        30.04R
A. F. ACADEMY  PTCLDY    34  12  39 SE3       30.03S
ELLICOTT       NOT AVBL
FALCON         MOCLDY    28  13  52 SW3       30.04S
FORT CARSON    MOCLDY    34  16  47 SW8       30.03R WCI  27
LIMON          PTCLDY    24  18  77 N5        30.03S WCI  18
MONUMENT HILL  MOCLDY    27  14  59 S9        30.01F WCI  17
TRINIDAD       CLEAR     33  20  58 E6        30.05S WCI  28
$$

COZ042>045-048>051-090-091-200200-
...NORTHEAST COLORADO...

CITY           SKY/WX    TMP DP  RH WIND       PRES   REMARKS
GREELEY ARPT   MOCLDY    28  16  59 E6        30.00S WCI  22
AKRON          CLEAR     29  21  72 S9        30.02S WCI  20
BURLINGTON     CLEAR     31  24  75 SW8       30.04S WCI  23
WRAY           CLEAR     33  27  77 SW7       30.03R WCI  27
STERLING       CLEAR     23  23 100 SW6       30.02S FOG     WCI  16
HOLYOKE        CLEAR     32  27  80 W9        30.03R WCI  24
FORT MORGAN    CLEAR     32  25  74 CALM      30.03S
$$

COZ086-089-092>099-200200-
...SOUTHEAST COLORADO...

CITY           SKY/WX    TMP DP  RH WIND       PRES   REMARKS
PUEBLO         PTCLDY    32  18  56 E8        30.02S WCI  25
LA JUNTA       CLEAR     35  26  69 S6        30.05S WCI  30
LAMAR          CLEAR     32  25  75 SW3       30.05S
SPRINGFIELD      N/A     30  24  78 S3        30.07R
$$


USA.gov is the U.S. government's official web portal to all federal, state and local government web resources and services.